This demonstration page uses our WeatherBlox Daily Observations layout. Learn more.

Left ArrowRight Arrow

Hourly Observations for April 12, 2021

Temp ( °F °C ) Dew Point ( °F °C ) Humidity (%) Winds ( mph kmh ) Pressure ( in mb ) Visibility ( mi km ) Precip ( " mm )
12:59 am 00:59 Mostly Clear 65 18.3 57 13.9 76 76 SSW 8 13 29.55 1001 10 16 0.00 0.00
1:59 am 01:59 Mostly Clear 64 17.8 56 13.3 75 75 SSW 7 11 29.55 1001 10 16 0.00 0.00
2:59 am 02:59 Mostly Clear 64 17.8 55 12.8 73 73 W 8 13 29.56 1001 10 16 0.00 0.00
3:59 am 03:59 Mostly Clear 63 17.2 53 11.7 70 70 NNW 6 9 29.58 1002 10 16 0.00 0.00
4:59 am 04:59 Clear 63 17.2 51 10.6 65 65 NNW 6 9 29.59 1002 10 16 0.00 0.00
5:59 am 05:59 Mostly Clear 62 16.7 54 12.2 75 75 N 7 11 29.62 1003 10 16 0.00 0.00
6:59 am 06:59 Sunny 59 15 55 12.8 87 87 NNE 6 9 29.64 1004 9 14 0.00 0.00
7:59 am 07:59 Partly Cloudy 59 15 54 12.2 83 83 N 13 20 29.66 1004 9 14 0.00 0.00
8:59 am 08:59 Mostly Cloudy 59 15 53 11.7 81 81 NNE 12 19 29.67 1005 10 16 0.00 0.00
9:59 am 09:59 Mostly Cloudy 59 15 54 12.2 83 83 N 12 19 29.69 1006 10 16 0.00 0.00
10:31 am 10:31 Mostly Cloudy 60 15.6 53 11.7 78 78 N 12 19 29.71 1006 10 16 0.00 0.00
10:59 am 10:59 Mostly Cloudy 61 16.1 54 12.2 78 78 N 10 17 29.72 1006 10 16 0.00 0.00
11:50 am 11:50 Mostly Sunny 63 17.2 54 12.2 73 73 NNE 8 13 29.71 1006 10 16 0.00 0.00
11:59 am 11:59 Mostly Sunny 63 17.2 54 12.2 73 73 NE 8 13 29.71 1006 10 16 0.00 0.00
12:59 pm 12:59 Mostly Sunny 63 17.2 55 12.8 76 76 ENE 7 11 29.71 1006 10 16 0.00 0.00
1:59 pm 13:59 Mostly Sunny 62 16.7 54 12.2 75 75 NE 10 17 29.71 1006 10 16 0.00 0.00
2:33 pm 14:33 Cloudy 61 16.1 54 12.2 78 78 ENE 9 15 29.72 1006 8 13 0.00 0.00
2:59 pm 14:59 Mostly Cloudy 59 15 53 11.7 81 81 ENE 12 19 29.72 1006 8 13 0.00 0.00
3:50 pm 15:50 Cloudy 58 14.4 53 11.7 84 84 ENE 8 13 29.72 1006 7 11 0.00 0.00
3:59 pm 15:59 Cloudy 57 13.9 53 11.7 87 87 ENE 9 15 29.72 1007 7 11 0.00 0.00
4:59 pm 16:59 Mostly Cloudy 58 14.4 53 11.7 84 84 ENE 8 13 29.74 1007 7 11 0.00 0.00
5:59 pm 17:59 Cloudy 57 13.9 51 10.6 81 81 E 12 19 29.76 1008 7 11 0.00 0.00
6:59 pm 18:59 Cloudy 55 12.8 50 10 83 83 E 9 15 29.78 1009 7 11 0.00 0.00
7:59 pm 19:59 Cloudy 54 12.2 49 9.4 83 83 E 10 17 29.80 1009 7 11 0.00 0.00
8:59 pm 20:59 Cloudy 53 11.7 48 8.9 83 83 E 12 19 29.83 1010 8 13 0.00 0.00
9:59 pm 21:59 Cloudy 53 11.7 48 8.9 83 83 ENE 15 24 29.88 1012 9 14 0.00 0.00
10:15 pm 22:15 Cloudy 53 11.7 48 8.9 83 83 NNE 15 24 29.92 1013 10 16 0.00 0.00
10:59 pm 22:59 Cloudy 53 11.7 49 9.4 86 86 ENE 8 13 29.91 1013 10 16 0.00 0.00
11:11 pm 23:11 Cloudy 53 11.7 49 9.4 86 86 NE 8 13 29.91 1013 10 16 0.00 0.00
11:31 pm 23:31 Cloudy 53 11.7 49 9.4 86 86 ENE 8 13 29.90 1013 10 16 0.00 0.00
11:59 pm 23:59 Cloudy 53 11.7 49 9.4 86 86 NNE 8 13 29.91 1013 10 16 0.00 0.00

Powered by AerisWeather